Location: Brookfield Center
(41.2406°N, 80.5579°W)
Time: 04:43:12
(UTC+00:00)

H-2A R/B - Pass Details

Date: 18 January 2020
Orbit: 503 x 540 km, 97.3° (Epoch: 21 February)

Event Time Altitude Azimuth Distance (km) Brightness Sun altitude
Rises 11:31:30 0° 13° (NNE) 2,707 6.3 -13.6°
Reaches altitude 10° 11:33:38 10° 14° (NNE) 1,810 5.4 -13.2°
Maximum altitude 11:37:33 79° 102° (ESE) 553 2.9 -12.5°
Drops below altitude 10° 11:41:25 10° 189° (S) 1,786 5.5 -11.8°
Sets 11:43:31 0° 191° (S) 2,667 6.4 -11.4°
